Marshfield, WI

6:53 AM CDT on March 27, 2017 (GMT -0500)
Marshfield Municipal

Weather History for KMFI - February, 2013

Change the Weather History Date:

Thursday, February 21, 2013

  Actual Average Record
Temperature  
Mean Temperature 11 °F -  
Max Temperature 21 °F 32 °F 55 °F (2017)
Min Temperature 1 °F 13 °F -23 °F (1963)
Degree Days  
Heating Degree Days 54    
Moisture  
Dew Point 7 °F    
Average Humidity 77    
Maximum Humidity 88    
Minimum Humidity 62    
Precipitation  
Precipitation 0.00 in - - ()
Sea Level Pressure  
Sea Level Pressure 30.34 in    
Wind  
Wind Speed 7 mph (East)    
Max Wind Speed 20 mph    
Max Gust Speed 30 mph    
Visibility 10 miles    
Events      
Averages and records for this station are not official NWS values.
T = Trace of Precipitation, MM = Missing Value Source: NWS Daily Summary

Daily Weather History Graph

Daily Weather History Graph

Search for Another Location

Airport or City:

Trip Planner

Search our weather history database for the weather conditions in past years. The results will help you decide how hot, cold, wet, or windy it might be!

Date:

Astronomy

Feb. 21, 2013 Rise Set
Actual Time 6:51 AM CST 5:38 PM CST
Civil Twilight 6:21 AM CST 6:07 PM CST
Nautical Twilight 5:47 AM CST 6:41 PM CST
Astronomical Twilight 5:14 AM CST 7:15 PM CST
Moon 1:46 PM CST (2/21) 4:02 AM CST (2/21)
Length of Visible Light 11h 46m
Length of Day
10h 46m
Waxing Gibbous, 84% of the Moon is Illuminated
Feb 21
Waxing Gibbous
Feb 25
Full
Mar 4
Last Quarter
Mar 11
New
Mar 19
First Quarter

Hourly Weather History & Observations

Time (CST) Temp. Windchill Dew Point Humidity Pressure Visibility Wind Dir Wind Speed Gust Speed Precip Events Conditions
12:54 AM 6.1 °F -2.8 °F -0.0 °F 76% 30.45 in 10.0 mi ENE 4.6 mph - N/A   Clear
1:54 AM 3.9 °F - -0.9 °F 80% 30.46 in 10.0 mi Calm Calm - N/A   Clear
2:54 AM 3.9 °F -3.4 °F -0.9 °F 80% 30.45 in 10.0 mi NE 3.5 mph - N/A   Clear
3:54 AM 3.9 °F -3.4 °F -0.9 °F 80% 30.46 in 10.0 mi NE 3.5 mph - N/A   Clear
4:54 AM 3.0 °F -6.4 °F -2.0 °F 80% 30.48 in 10.0 mi NE 4.6 mph - N/A   Clear
5:54 AM 1.9 °F -7.6 °F -2.0 °F 83% 30.48 in 10.0 mi NE 4.6 mph - N/A   Clear
6:54 AM 1.0 °F -15.8 °F -4.0 °F 79% 30.39 in 10.0 mi NE 11.5 mph - N/A   Clear
7:54 AM 1.0 °F - -4.0 °F 79% 30.50 in 10.0 mi Calm Calm - N/A   Clear
8:54 AM 5.0 °F -6.9 °F -0.9 °F 76% 30.48 in 10.0 mi ENE 6.9 mph - N/A   Clear
9:54 AM 7.0 °F -6.6 °F 1.9 °F 80% 30.48 in 10.0 mi ESE 9.2 mph - N/A   Clear
10:54 AM 9.0 °F -4.2 °F 3.0 °F 77% 30.47 in 10.0 mi SE 9.2 mph - N/A   Clear
11:54 AM 10.0 °F -1.9 °F 3.0 °F 73% 30.45 in 10.0 mi ENE 8.1 mph - N/A   Clear
12:54 PM 12.9 °F 2.6 °F 3.9 °F 67% 30.41 in 10.0 mi East 6.9 mph - N/A   Clear
1:54 PM 15.1 °F 5.2 °F 6.1 °F 68% 30.37 in 10.0 mi ESE 6.9 mph - N/A   Clear
2:54 PM 18.0 °F 6.1 °F 7.0 °F 62% 30.35 in 10.0 mi ENE 10.4 mph - N/A   Clear
3:54 PM 18.0 °F 11.1 °F 8.1 °F 65% 30.35 in 10.0 mi SSE 4.6 mph - N/A   Clear
4:54 PM 18.0 °F 12.7 °F 9.0 °F 68% 30.33 in 10.0 mi SE 3.5 mph - N/A   Clear
5:54 PM 19.0 °F 10.0 °F 10.0 °F 68% 30.30 in 10.0 mi East 6.9 mph - N/A   Clear
6:54 PM 19.0 °F 10.0 °F 10.9 °F 71% 30.27 in 10.0 mi East 6.9 mph - N/A   Clear
7:54 PM 19.0 °F 8.2 °F 12.9 °F 77% 30.26 in 10.0 mi East 9.2 mph - N/A   Clear
8:20 PM 19.4 °F 7.9 °F 14.0 °F 80% 30.15 in 10.0 mi East 10.4 mph - N/A   Mostly Cloudy
8:54 PM 21.0 °F 9.3 °F 15.1 °F 78% 30.21 in 10.0 mi East 11.5 mph 23.0 mph N/A   Overcast
9:19 PM 21.2 °F 8.3 °F 15.8 °F 80% 30.11 in 10.0 mi East 13.8 mph - N/A   Overcast
9:54 PM 21.0 °F 5.7 °F 17.1 °F 85% 30.18 in 10.0 mi East 19.6 mph 27.6 mph N/A   Overcast
10:25 PM 21.2 °F 6.8 °F 17.6 °F 86% 30.08 in 10.0 mi East 17.3 mph 29.9 mph N/A   Overcast
10:54 PM 21.0 °F 6.2 °F 18.0 °F 88% 30.15 in 10.0 mi East 18.4 mph 28.8 mph N/A   Overcast
11:54 PM 21.0 °F 7.1 °F 18.0 °F 88% 30.16 in 10.0 mi East 16.1 mph 25.3 mph N/A   Overcast